FW7164 Weather Reports


time (UTC)temp
C
wind
direction
speed
KPH
gust
KPH
rain 1hr
cm
rain 24hr
cm
rain mn
cm
humidity
%
barometer
mb
20260906225003 28 153 3.2 11.3 0.00 0.00 0.00 36 1003.7
20260906224558 28 152 3.2 11.3 0.00 0.00 0.00 35 1003.7
20260906224052 28 78 1.6 14.5 0.00 0.00 0.00 35 1003.7
20260906223546 28 111 3.2 14.5 0.00 0.00 0.00 35 1003.7
20260906223040 28 138 1.6 11.3 0.00 0.00 0.00 34 1003.9
20260906222534 28 159 4.8 9.7 0.00 0.00 0.00 34 1003.9
20260906222030 28 224 0.0 11.3 0.00 0.00 0.00 33 1003.9
20260906221531 28 86 4.8 11.3 0.00 0.00 0.00 34 1003.9
20260906221019 28 355 0.0 11.3 0.00 0.00 0.00 36 1003.9
20260906220514 28 128 0.0 12.9 0.00 0.00 0.00 33 1004.0
20260906220011 28 150 0.0 14.5 0.00 0.00 0.00 32 1004.1
20260906215500 28 154 6.4 14.5 0.00 0.00 0.00 35 1004.3
20260906215056 28 256 3.2 16.1 0.00 0.00 0.00 36 1004.3
20260906214553 28 151 1.6 12.9 0.00 0.00 0.00 36 1004.4
20260906214044 28 244 3.2 16.1 0.00 0.00 0.00 35 1004.5
20260906213541 29 87 3.2 12.9 0.00 0.00 0.00 35 1004.5
20260906213034 29 163 4.8 9.7 0.00 0.00 0.00 36 1004.7
20260906212528 29 169 4.8 14.5 0.00 0.00 0.00 36 1004.6
20260906212022 29 167 1.6 14.5 0.00 0.00 0.00 35 1004.6
20260906211517 29 163 3.2 11.3 0.00 0.00 0.00 35 1004.6
20260906211012 29 155 3.2 17.7 0.00 0.00 0.00 36 1004.6
20260906210506 28 164 6.4 17.7 0.00 0.00 0.00 36 1004.5
20260906210107 28 138 6.4 14.5 0.00 0.00 0.00 36 1004.6
20260906205557 28 126 4.8 12.9 0.00 0.00 0.00 36 1004.7
20260906205047 28 254 1.6 16.1 0.00 0.00 0.00 37 1004.8
20260906204549 28 167 1.6 16.1 0.00 0.00 0.00 37 1004.8
20260906204034 28 155 1.6 16.1 0.00 0.00 0.00 35 1005.1
20260906203529 28 157 3.2 19.3 0.00 0.00 0.00 35 1005.0
20260906203033 28 122 9.7 19.3 0.00 0.00 0.00 34 1005.0
20260906202516 29 66 6.4 14.5 0.00 0.00 0.00 35 1005.0
20260906202012 29 68 6.4 14.5 0.00 0.00 0.00 35 1005.0
20260906201507 29 166 6.4 16.1 0.00 0.00 0.00 34 1005.2
20260906201102 29 151 8.0 19.3 0.00 0.00 0.00 34 1005.2
20260906200555 28 158 8.0 19.3 0.00 0.00 0.00 34 1005.3
20260906200049 28 164 4.8 19.3 0.00 0.00 0.00 35 1005.5
20260906195543 28 144 8.0 19.3 0.00 0.00 0.00 35 1005.4
20260906195042 28 190 8.0 16.1 0.00 0.00 0.00 33 1005.5
20260906194533 28 167 4.8 14.5 0.00 0.00 0.00 33 1005.5
20260906194026 28 156 6.4 14.5 0.00 0.00 0.00 33 1005.6
20260906193521 28 148 4.8 12.9 0.00 0.00 0.00 32 1005.6
20260906193015 28 279 1.6 12.9 0.00 0.00 0.00 31 1005.6
20260906192508 29 136 4.8 14.5 0.00 0.00 0.00 32 1005.7
20260906192004 29 173 6.4 12.9 0.00 0.00 0.00 32 1005.8
20260906191604 29 96 1.6 16.1 0.00 0.00 0.00 32 1005.8
20260906191052 29 169 9.7 16.1 0.00 0.00 0.00 31 1006.0
20260906190549 30 95 6.4 12.9 0.00 0.00 0.00 30 1005.9
20260906190037 29 171 1.6 14.5 0.00 0.00 0.00 29 1005.9
20260906185530 29 11 3.2 11.3 0.00 0.00 0.00 28 1006.1
20260906185024 29 150 6.4 11.3 0.00 0.00 0.00 29 1006.2
20260906184518 28 235 3.2 12.9 0.00 0.00 0.00 30 1006.3
20260906184013 28 169 1.6 12.9 0.00 0.00 0.00 30 1006.5
20260906183506 28 165 6.4 12.9 0.00 0.00 0.00 31 1006.5
20260906183110 28 175 0.0 8.0 0.00 0.00 0.00 32 1006.7
20260906182556 28 240 0.0 4.8 0.00 0.00 0.00 33 1006.7
20260906182051 28 238 0.0 17.7 0.00 0.00 0.00 32 1006.9
20260906181547 28 214 1.6 17.7 0.00 0.00 0.00 33 1007.2
20260906181036 27 163 1.6 12.9 0.00 0.00 0.00 34 1007.2
20260906180531 28 153 1.6 11.3 0.00 0.00 0.00 34 1007.5
20260906180029 28 263 3.2 11.3 0.00 0.00 0.00 32 1007.6
20260906175522 28 155 3.2 11.3 0.00 0.00 0.00 33 1007.7
20260906175012 28 223 1.6 11.3 0.00 0.00 0.00 34 1007.9
20260906174505 27 223 0.0 8.0 0.00 0.00 0.00 35 1008.1
20260906174101 27 227 1.6 8.0 0.00 0.00 0.00 34 1008.4
20260906173555 27 165 0.0 8.0 0.00 0.00 0.00 35 1008.5
20260906173045 27 271 0.0 9.7 0.00 0.00 0.00 35 1008.5
20260906172536 27 140 1.6 14.5 0.00 0.00 0.00 36 1008.7
20260906172029 27 142 3.2 14.5 0.00 0.00 0.00 37 1008.8
20260906171524 27 215 0.0 0.0 0.00 0.00 0.00 36 1008.9
20260906171018 26 251 0.0 8.0 0.00 0.00 0.00 37 1009.1
20260906170511 26 128 0.0 8.0 0.00 0.00 0.00 37 1009.2
20260906170007 26 203 0.0 8.0 0.00 0.00 0.00 38 1009.4
20260906165559 25 92 1.6 9.7 0.00 0.00 0.00 38 1009.4
20260906165053 25 222 0.0 9.7 0.00 0.00 0.00 38 1009.5
20260906164547 25 111 3.2 6.4 0.00 0.00 0.00 39 1009.5
20260906164043 25 167 1.6 8.0 0.00 0.00 0.00 38 1009.6
20260906163535 24 117 0.0 0.0 0.00 0.00 0.00 41 1009.6
20260906163029 23 185 0.0 8.0 0.00 0.00 0.00 44 1009.6
20260906162522 23 156 0.0 9.7 0.00 0.00 0.00 44 1009.6
20260906162020 23 156 0.0 9.7 0.00 0.00 0.00 45 1009.5
20260906161526 23 186 0.0 4.8 0.00 0.00 0.00 45 1009.5
20260906161005 22 283 0.0 0.0 0.00 0.00 0.00 47 1009.6
20260906160600 22 223 0.0 0.0 0.00 0.00 0.00 47 1009.6
20260906160054 22 221 0.0 0.0 0.00 0.00 0.00 50 1009.6
20260906155550 21 234 0.0 0.0 0.00 0.00 0.00 49 1009.7
20260906155038 21 244 0.0 0.0 0.00 0.00 0.00 50 1009.6
20260906154530 20 127 0.0 0.0 0.00 0.00 0.00 51 1009.7
20260906154030 20 122 0.0 0.0 0.00 0.00 0.00 51 1009.7
20260906153518 20 136 0.0 0.0 0.00 0.00 0.00 53 1009.9
20260906153012 20 227 0.0 0.0 0.00 0.00 0.00 54 1009.9
20260906152506 19 225 0.0 0.0 0.00 0.00 0.00 56 1009.9
20260906152054 18 360 0.0 0.0 0.00 0.00 0.00 58 1009.9
20260906151548 18 360 0.0 0.0 0.00 0.00 0.00 59 1009.9
20260906151043 18 360 0.0 6.4 0.00 0.00 0.00 59 1009.9
20260906150536 17 360 0.0 6.4 0.00 0.00 0.00 61 1010.0
20260906150035 17 360 0.0 4.8 0.00 0.00 0.00 63 1010.1
20260906145523 16 126 0.0 0.0 0.00 0.00 0.00 65 1010.2
20260906145017 16 126 0.0 4.8 0.00 0.00 0.00 66 1010.2
20260906144517 16 125 0.0 0.0 0.00 0.00 0.00 66 1010.1
20260906144005 16 120 0.0 4.8 0.00 0.00 0.00 66 1010.1
20260906143601 15 120 0.0 4.8 0.00 0.00 0.00 68 1010.2
20260906143056 15 113 0.0 3.2 0.00 0.00 0.00 68 1010.3
20260906142529 15 82 0.0 0.0 0.00 0.00 0.00 69 1010.3
20260906142025 15 82 0.0 0.0 0.00 0.00 0.00 69 1010.3
20260906141520 15 82 0.0 0.0 0.00 0.00 0.00 68 1010.4
20260906141015 15 82 0.0 0.0 0.00 0.00 0.00 70 1010.4
20260906140510 14 82 0.0 0.0 0.00 0.00 0.00 71 1010.5
20260906140005 14 81 0.0 0.0 0.00 0.00 0.00 72 1010.5
20260906135559 14 22 0.0 0.0 0.00 0.00 0.00 72 1010.5
20260906135054 14 22 0.0 0.0 0.00 0.00 0.00 73 1010.4
20260906134550 13 22 0.0 0.0 0.00 0.00 0.00 74 1010.5
20260906134044 13 22 0.0 0.0 0.00 0.00 0.00 74 1010.7
20260906133540 13 22 0.0 0.0 0.00 0.00 0.00 76 1010.6
20260906133041 12 22 0.0 0.0 0.00 0.00 0.00 77 1010.7
20260906132527 11 22 0.0 0.0 0.00 0.00 0.00 79 1010.7
20260906132021 11 22 0.0 0.0 0.00 0.00 0.00 81 1010.6
20260906131516 11 22 0.0 0.0 0.00 0.00 0.00 82 1010.5
20260906131010 10 22 0.0 0.0 0.00 0.00 0.00 80 1010.4
20260906130506 10 22 0.0 0.0 0.00 0.00 0.00 80 1010.3
20260906130000 11 22 0.0 0.0 0.00 0.00 0.00 80 1010.3
20260906125601 11 22 0.0 0.0 0.00 0.00 0.00 80 1010.2
20260906125052 11 22 0.0 0.0 0.00 0.00 0.00 80 1010.3
20260906124546 11 22 0.0 0.0 0.00 0.00 0.00 80 1010.3
20260906124042 11 22 0.0 0.0 0.00 0.00 0.00 80 1010.2
20260906123538 10 72 0.0 0.0 0.00 0.00 0.00 81 1010.1
20260906123032 10 72 0.0 0.0 0.00 0.00 0.00 80 1010.2
20260906122517 10 72 0.0 0.0 0.00 0.00 0.00 80 1010.3
20260906122010 11 72 0.0 0.0 0.00 0.00 0.00 79 1010.3
20260906121514 11 72 0.0 0.0 0.00 0.00 0.00 79 1010.3
20260906121100 11 72 0.0 0.0 0.00 0.00 0.00 78 1010.3
20260906120557 11 72 0.0 0.0 0.00 0.00 0.00 78 1010.4
20260906120048 11 72 0.0 0.0 0.00 0.00 0.00 77 1010.4
20260906115543 11 72 0.0 0.0 0.00 0.00 0.00 77 1010.3
20260906115037 11 72 0.0 0.0 0.00 0.00 0.00 76 1010.4
20260906114533 11 72 0.0 0.0 0.00 0.00 0.00 77 1010.3
20260906114024 11 72 0.0 0.0 0.00 0.00 0.00 76 1010.1
20260906113521 11 72 0.0 0.0 0.00 0.00 0.00 76 1010.2
20260906113016 12 72 0.0 0.0 0.00 0.00 0.00 76 1010.1
20260906112506 12 72 0.0 0.0 0.00 0.00 0.00 76 1010.2
20260906112002 12 72 0.0 4.8 0.00 0.00 0.00 76 1010.2
20260906111556 12 72 0.0 4.8 0.00 0.00 0.00 76 1010.1
20260906111049 12 23 0.0 0.0 0.00 0.00 0.00 76 1010.1
20260906110544 12 23 0.0 0.0 0.00 0.00 0.00 75 1010.1
20260906110038 12 24 0.0 0.0 0.00 0.00 0.00 75 1010.0
20260906105531 12 24 0.0 0.0 0.00 0.00 0.00 75 1010.0
20260906105026 12 24 0.0 0.0 0.00 0.00 0.00 75 1010.0
20260906104520 12 24 0.0 0.0 0.00 0.00 0.00 74 1010.0
20260906104015 12 24 0.0 0.0 0.00 0.00 0.00 74 1010.0
20260906103509 12 24 0.0 0.0 0.00 0.00 0.00 74 1009.9
20260906103011 12 24 0.0 0.0 0.00 0.00 0.00 74 1009.9
20260906102557 12 24 0.0 0.0 0.00 0.00 0.00 73 1009.9
20260906102053 13 24 0.0 0.0 0.00 0.00 0.00 72 1009.9
20260906101547 13 24 0.0 0.0 0.00 0.00 0.00 71 1009.8
20260906101039 13 24 0.0 0.0 0.00 0.00 0.00 71 1009.8
20260906100534 13 24 0.0 0.0 0.00 0.00 0.00 71 1009.8
20260906100033 13 24 0.0 0.0 0.00 0.00 0.00 70 1009.8
20260906095525 13 56 0.0 0.0 0.00 0.00 0.00 70 1009.8
20260906095015 14 38 0.0 0.0 0.00 0.00 0.00 69 1009.7
20260906094509 14 38 0.0 0.0 0.00 0.00 0.00 69 1009.8
20260906094106 14 28 0.0 0.0 0.00 0.00 0.00 69 1009.8
20260906093601 14 26 0.0 0.0 0.00 0.00 0.00 69 1009.8
20260906093054 14 43 0.0 0.0 0.00 0.00 0.00 69 1009.8
20260906092549 14 32 0.0 0.0 0.00 0.00 0.00 69 1009.8
20260906092044 14 26 0.0 0.0 0.00 0.00 0.00 69 1009.8
20260906091538 14 56 0.0 0.0 0.00 0.00 0.00 69 1009.8
20260906091033 14 36 0.0 0.0 0.00 0.00 0.00 68 1009.7
20260906090527 14 39 0.0 0.0 0.00 0.00 0.00 69 1009.7
20260906090025 15 25 0.0 0.0 0.00 0.00 0.00 68 1009.8
20260906085517 15 19 0.0 0.0 0.00 0.00 0.00 68 1009.8
20260906085011 15 21 0.0 0.0 0.00 0.00 0.00 68 1009.8
20260906084607 15 24 0.0 0.0 0.00 0.00 0.00 69 1009.8
20260906084104 14 26 0.0 0.0 0.00 0.00 0.00 70 1009.7
20260906083556 14 22 0.0 0.0 0.00 0.00 0.00 70 1009.7
20260906083049 14 22 0.0 0.0 0.00 0.00 0.00 70 1009.7
20260906082548 14 13 0.0 0.0 0.00 0.00 0.00 70 1009.8
20260906082039 14 11 0.0 0.0 0.00 0.00 0.00 70 1009.8
20260906081533 14 24 0.0 0.0 0.00 0.00 0.00 70 1009.9
20260906081027 14 44 0.0 0.0 0.00 0.00 0.00 70 1009.9
20260906080608 14 355 0.0 0.0 0.00 0.00 0.00 71 1010.0
20260906080103 14 37 0.0 0.0 0.00 0.00 0.00 71 1010.1
20260906075555 14 40 0.0 0.0 0.00 0.00 0.00 70 1010.2
20260906075050 14 31 0.0 0.0 0.00 0.00 0.00 70 1010.0
20260906074546 14 27 0.0 0.0 0.00 0.00 0.00 71 1010.0
20260906074040 14 360 0.0 0.0 0.00 0.00 0.00 71 1010.1
20260906073536 15 38 0.0 0.0 0.00 0.00 0.00 71 1010.1
20260906073028 15 38 0.0 0.0 0.00 0.00 0.00 71 1010.2
20260906072522 15 44 0.0 0.0 0.00 0.00 0.00 71 1010.2
20260906072016 15 35 0.0 0.0 0.00 0.00 0.00 71 1010.2
20260906071515 15 31 0.0 0.0 0.00 0.00 0.00 72 1010.3
20260906071004 15 18 0.0 0.0 0.00 0.00 0.00 72 1010.3
20260906070559 15 29 0.0 0.0 0.00 0.00 0.00 72 1010.3
20260906070053 15 46 0.0 0.0 0.00 0.00 0.00 71 1010.2
20260906065546 15 9 0.0 0.0 0.00 0.00 0.00 71 1010.1
20260906065040 15 9 0.0 0.0 0.00 0.00 0.00 71 1010.1
20260906064534 15 17 0.0 0.0 0.00 0.00 0.00 71 1010.1
20260906064028 15 32 0.0 0.0 0.00 0.00 0.00 71 1010.1
20260906063523 15 28 0.0 0.0 0.00 0.00 0.00 71 1010.1
20260906063018 15 33 0.0 0.0 0.00 0.00 0.00 71 1010.2
20260906062516 15 25 0.0 0.0 0.00 0.00 0.00 71 1010.1
20260906062007 15 16 0.0 0.0 0.00 0.00 0.00 71 1010.2
20260906061601 15 24 0.0 0.0 0.00 0.00 0.00 71 1010.1
20260906061055 16 40 0.0 0.0 0.00 0.00 0.00 70 1010.1
20260906060549 16 46 0.0 0.0 0.00 0.00 0.00 69 1010.1
20260906060054 16 25 0.0 0.0 0.00 0.00 0.00 68 1010.2
20260906055537 16 9 0.0 0.0 0.00 0.00 0.00 68 1010.2
20260906055032 16 27 0.0 0.0 0.00 0.00 0.00 66 1010.2
20260906054526 16 17 0.0 0.0 0.00 0.00 0.00 63 1010.4
20260906054022 16 15 0.0 0.0 0.00 0.00 0.00 63 1010.4
20260906053516 16 15 0.0 0.0 0.00 0.00 0.00 62 1010.3
20260906053011 16 15 0.0 0.0 0.00 0.00 0.00 63 1010.3
20260906052507 17 58 0.0 8.0 0.00 0.00 0.00 64 1010.4
20260906052052 17 74 0.0 8.0 0.00 0.00 0.00 64 1010.4
20260906051546 17 74 0.0 8.0 0.00 0.00 0.00 65 1010.4
20260906051042 17 45 0.0 0.0 0.00 0.00 0.00 64 1010.5
20260906050536 17 38 0.0 0.0 0.00 0.00 0.00 64 1010.7
20260906050033 17 19 0.0 0.0 0.00 0.00 0.00 65 1010.6
20260906045527 17 48 0.0 0.0 0.00 0.00 0.00 64 1010.7
20260906045020 18 39 0.0 0.0 0.00 0.00 0.00 63 1010.8
20260906044518 18 25 0.0 6.4 0.00 0.00 0.00 62 1010.8
20260906044012 18 24 0.0 6.4 0.00 0.00 0.00 60 1011.0
20260906043507 18 28 0.0 0.0 0.00 0.00 0.00 59 1010.8
20260906043101 19 15 0.0 0.0 0.00 0.00 0.00 56 1010.9
20260906042556 19 63 0.0 8.0 0.00 0.00 0.00 56 1010.9
20260906042050 19 317 0.0 8.0 0.00 0.00 0.00 57 1011.0
20260906041544 20 294 0.0 3.2 0.00 0.00 0.00 56 1010.9
20260906041040 20 277 0.0 6.4 0.00 0.00 0.00 54 1010.9
20260906040535 19 5 0.0 6.4 0.00 0.00 0.00 53 1010.8
20260906040026 19 134 0.0 0.0 0.00 0.00 0.00 50 1010.4
20260906035521 18 84 0.0 0.0 0.00 0.00 0.00 50 1010.2
20260906035017 18 84 0.0 0.0 0.00 0.00 0.00 52 1009.9
20260906034515 18 84 0.0 0.0 0.00 0.00 0.00 51 1009.8
20260906034006 18 74 0.0 0.0 0.00 0.00 0.00 50 1009.6
20260906033542 18 82 0.0 0.0 0.00 0.00 0.00 51 1009.5
20260906033040 18 297 0.0 0.0 0.00 0.00 0.00 51 1009.3
20260906032532 18 297 0.0 0.0 0.00 0.00 0.00 50 1009.1
20260906032027 18 297 0.0 0.0 0.00 0.00 0.00 50 1009.0
20260906031528 18 297 0.0 0.0 0.00 0.00 0.00 49 1008.9
20260906031017 18 297 0.0 0.0 0.00 0.00 0.00 49 1008.9
20260906030513 19 297 0.0 0.0 0.00 0.00 0.00 49 1008.7
20260906030006 19 297 0.0 0.0 0.00 0.00 0.00 49 1008.7
20260906025601 19 297 0.0 0.0 0.00 0.00 0.00 48 1008.4
20260906025058 19 351 0.0 0.0 0.00 0.00 0.00 47 1008.3
20260906024547 19 28 0.0 0.0 0.00 0.00 0.00 47 1008.3
20260906024038 20 28 0.0 1.6 0.00 0.00 0.00 48 1008.2
20260906023533 20 55 0.0 1.6 0.00 0.00 0.00 47 1008.2
20260906023029 20 40 0.0 0.0 0.00 0.00 0.00 46 1008.2
20260906022521 20 40 0.0 0.0 0.00 0.00 0.00 45 1008.2
20260906022016 20 40 0.0 0.0 0.00 0.00 0.00 45 1008.1
20260906021512 20 40 0.0 0.0 0.00 0.00 0.00 44 1008.0
20260906021107 21 40 0.0 0.0 0.00 0.00 0.00 44 1008.0
20260906020502 21 61 0.0 0.0 0.00 0.00 0.00 45 1007.8
20260906020058 21 360 0.0 0.0 0.00 0.00 0.00 44 1007.7
20260906015553 21 360 0.0 1.6 0.00 0.00 0.00 45 1007.8
20260906015033 21 50 0.0 1.6 0.00 0.00 0.00 45 1007.7
20260906014528 21 47 0.0 0.0 0.00 0.00 0.00 42 1007.7
20260906014022 22 27 0.0 0.0 0.00 0.00 0.00 42 1007.7
20260906013517 22 360 0.0 0.0 0.00 0.00 0.00 40 1007.6
20260906013013 22 360 0.0 0.0 0.00 0.00 0.00 39 1007.6
20260906012509 23 360 0.0 0.0 0.00 0.00 0.00 38 1007.5
20260906012003 23 360 0.0 0.0 0.00 0.00 0.00 37 1007.5
20260906011600 23 360 0.0 0.0 0.00 0.00 0.00 36 1007.5
20260906011052 24 360 0.0 0.0 0.00 0.00 0.00 35 1007.5
20260906010548 25 360 0.0 0.0 0.00 0.00 0.00 35 1007.4
20260906010056 25 360 0.0 0.0 0.00 0.00 0.00 34 1007.4
20260906005538 25 360 0.0 1.6 0.00 0.00 0.00 33 1007.5
20260906005035 25 360 0.0 1.6 0.00 0.00 0.00 33 1007.4
20260906004527 25 360 0.0 0.0 0.00 0.00 0.00 33 1007.5
20260906004022 25 360 0.0 0.0 0.00 0.00 0.00 33 1007.3
20260906003517 26 360 0.0 0.0 0.00 0.00 0.00 33 1007.2
20260906003013 26 360 0.0 0.0 0.00 0.00 0.00 32 1007.2
20260906002507 26 360 0.0 0.0 0.00 0.00 0.00 32 1007.2
20260906002003 26 360 0.0 0.0 0.00 0.00 0.00 31 1007.2
20260906001605 26 360 0.0 0.0 0.00 0.00 0.00 31 1007.2
20260906001053 26 360 0.0 0.0 0.00 0.00 0.00 31 1007.2
20260906000549 26 360 0.0 0.0 0.00 0.00 0.00 31 1007.2
20260906000044 26 360 0.0 0.0 0.00 0.00 0.00 31 1007.2
20260905235538 26 360 0.0 0.0 0.00 0.00 0.00 30 1007.1
20260905235035 26 360 0.0 3.2 0.00 0.00 0.00 30 1007.2
20260905234528 26 253 0.0 3.2 0.00 0.00 0.00 30 1007.1
20260905234024 27 211 0.0 4.8 0.00 0.00 0.00 30 1007.1
20260905233518 27 281 0.0 8.0 0.00 0.00 0.00 29 1007.1
20260905233015 27 157 0.0 11.3 0.00 0.00 0.00 29 1007.1
20260905232508 27 261 3.2 11.3 0.00 0.00 0.00 28 1007.0
20260905232001 27 113 3.2 12.9 0.00 0.00 0.00 28 1007.0
20260905231557 27 145 4.8 12.9 0.00 0.00 0.00 28 1007.0
20260905231047 27 148 0.0 8.0 0.00 0.00 0.00 28 1007.0
20260905230542 27 248 0.0 11.3 0.00 0.00 0.00 28 1007.0
20260905230039 27 169 1.6 11.3 0.00 0.00 0.00 28 1006.9
20260905225525 27 275 4.8 11.3 0.00 0.00 0.00 28 1006.8